{"data":{"norad_id":63659,"intl_designator":"2025-083AB","name":"STARLINK-33771","alt_names":[],"object_type":"PAYLOAD","status":"ACTIVE","operator":null,"country":"US","launch_date":"2025-04-25","launch_site_code":"AFETR","launch_vehicle":null,"mission":null,"orbit_class":"UNKNOWN","rcs_meters":null,"size_class":null,"mass_kg":null,"dimensions":null,"purposes":["comms"],"wikipedia_slug":null,"has_3d_model":false,"image_url":null,"decayed_at":null,"tle_current":{"epoch":"2026-05-24T20:00:25.933536Z","epoch_age_seconds":93014,"freshness":"FRESH","line1":"1 63659U 25083AB  26144.83363349  .00017168  00000+0  63168-3 0  9992","line2":"2 63659  42.9955 298.5926 0002800 256.7843 103.2697 15.27591980 61700","mean_motion":15.2759198,"eccentricity":0.00028,"inclination_deg":42.9955,"raan_deg":298.5926,"arg_perigee_deg":256.7843,"mean_anomaly_deg":103.2697,"bstar":0.00063168,"rev_number":6170,"period_min":94.266009435321,"perigee_km":481.09210178163,"apogee_km":484.93434590699,"semimajor_km":6861.1502238443,"source":"CELESTRAK","updated_at":"2026-05-25T13:38:20.088473Z"}}}